| time (UTC) | temp C | wind direction | speed KPH | gust KPH | rain 1hr cm | rain 24hr cm | rain mn cm | humidity % | barometer mb |
| 20260505101507 | 11 | 213 | 3.2 | 9.7 | 0.00 | 0.00 | 0.00 | 87 | 1013.0 |
| 20260505100008 | 11 | 184 | 3.2 | 11.3 | 0.00 | 0.00 | 0.00 | 86 | 1013.0 |
| 20260505094509 | 12 | 304 | 3.2 | 11.3 | 0.00 | 0.00 | 0.00 | 86 | 1012.9 |
| 20260505093007 | 12 | 198 | 3.2 | 12.9 | 0.00 | 0.00 | 0.00 | 85 | 1012.7 |
| 20260505091510 | 12 | 25 | 3.2 | 16.1 | 0.00 | 0.00 | 0.00 | 85 | 1012.6 |
| 20260505090010 | 12 | 149 | 3.2 | 8.0 | 0.00 | 0.00 | 0.00 | 85 | 1012.4 |
| 20260505084514 | 11 | 218 | 3.2 | 11.3 | 0.00 | 0.00 | 0.00 | 85 | 1012.3 |
| 20260505083011 | 11 | 200 | 1.6 | 8.0 | 0.00 | 0.00 | 0.00 | 86 | 1012.4 |
| 20260505081512 | 11 | 333 | 1.6 | 4.8 | 0.00 | 0.00 | 0.00 | 86 | 1012.3 |
| 20260505080011 | 12 | 218 | 0.0 | 11.3 | 0.00 | 0.00 | 0.00 | 86 | 1012.3 |
| 20260505074510 | 12 | 269 | 1.6 | 11.3 | 0.00 | 0.00 | 0.00 | 84 | 1012.0 |
| 20260505073017 | 12 | 118 | 1.6 | 4.8 | 0.00 | 0.00 | 0.00 | 81 | 1011.9 |
| 20260505071513 | 12 | 120 | 0.0 | 6.4 | 0.00 | 0.00 | 0.00 | 80 | 1011.7 |
| 20260505070019 | 12 | 138 | 3.2 | 9.7 | 0.00 | 0.00 | 0.00 | 81 | 1011.6 |
| 20260505064515 | 12 | 116 | 3.2 | 4.8 | 0.00 | 0.00 | 0.00 | 81 | 1011.4 |
| 20260505063015 | 12 | 105 | 1.6 | 6.4 | 0.00 | 0.00 | 0.00 | 80 | 1011.3 |
| 20260505061517 | 12 | 111 | 3.2 | 6.4 | 0.00 | 0.00 | 0.00 | 80 | 1011.3 |
| 20260505060020 | 13 | 92 | 1.6 | 4.8 | 0.00 | 0.00 | 0.00 | 79 | 1011.2 |
| 20260505054520 | 13 | 85 | 3.2 | 9.7 | 0.00 | 0.00 | 0.00 | 78 | 1011.2 |
| 20260505053018 | 13 | 53 | 3.2 | 8.0 | 0.00 | 0.00 | 0.00 | 78 | 1011.0 |
| 20260505051521 | 13 | 50 | 3.2 | 6.4 | 0.00 | 0.00 | 0.00 | 77 | 1011.0 |
| 20260505041530 | 16 | 259 | 0.0 | 4.8 | 0.00 | 0.00 | 0.00 | 72 | 1010.1 |
| 20260505040016 | 16 | 196 | 0.0 | 4.8 | 0.00 | 0.00 | 0.00 | 71 | 1010.0 |
| 20260505034515 | 17 | 174 | 0.0 | 0.0 | 0.00 | 0.00 | 0.00 | 68 | 1009.8 |
| 20260505033003 | 17 | 196 | 0.0 | 6.4 | 0.00 | 0.00 | 0.00 | 67 | 1009.7 |
| 20260505031505 | 18 | 149 | 1.6 | 8.0 | 0.00 | 0.00 | 0.00 | 63 | 1009.5 |
| 20260505030011 | 18 | 313 | 1.6 | 3.2 | 0.00 | 0.00 | 0.00 | 61 | 1009.4 |
| 20260505024518 | 18 | 313 | 0.0 | 1.6 | 0.00 | 0.00 | 0.00 | 62 | 1009.4 |
| 20260505023018 | 18 | 313 | 0.0 | 1.6 | 0.00 | 0.00 | 0.00 | 62 | 1009.5 |
| 20260505021507 | 18 | 112 | 0.0 | 4.8 | 0.00 | 0.00 | 0.00 | 60 | 1009.6 |
| 20260505020020 | 19 | 56 | 0.0 | 1.6 | 0.00 | 0.00 | 0.00 | 60 | 1009.7 |
| 20260505014513 | 20 | 104 | 1.6 | 4.8 | 0.00 | 0.00 | 0.00 | 59 | 1009.7 |
| 20260505013020 | 21 | 109 | 0.0 | 3.2 | 0.00 | 0.00 | 0.00 | 56 | 1009.8 |
| 20260505011503 | 21 | 102 | 0.0 | 3.2 | 0.00 | 0.00 | 0.00 | 55 | 1009.8 |
| 20260505010007 | 21 | 98 | 0.0 | 4.8 | 0.00 | 0.00 | 0.00 | 59 | 1009.9 |
| 20260505004520 | 21 | 117 | 0.0 | 0.0 | 0.00 | 0.00 | 0.00 | 62 | 1009.9 |
| 20260505003021 | 21 | 105 | 0.0 | 4.8 | 0.00 | 0.00 | 0.00 | 61 | 1009.9 |
| 20260505001522 | 22 | 98 | 0.0 | 3.2 | 0.00 | 0.00 | 0.00 | 57 | 1010.1 |
| 20260505000010 | 22 | 94 | 1.6 | 3.2 | 0.00 | 0.00 | 0.00 | 55 | 1010.1 |
| 20260504234511 | 22 | 92 | 1.6 | 3.2 | 0.00 | 0.00 | 0.00 | 53 | 1010.2 |
| 20260504233022 | 22 | 172 | 0.0 | 4.8 | 0.00 | 0.00 | 0.00 | 54 | 1010.3 |
| 20260504231524 | 22 | 96 | 1.6 | 3.2 | 0.00 | 0.00 | 0.00 | 54 | 1010.4 |
| 20260504230022 | 21 | 96 | 3.2 | 4.8 | 0.00 | 0.00 | 0.00 | 55 | 1010.5 |
| 20260504224509 | 22 | 90 | 0.0 | 3.2 | 0.00 | 0.00 | 0.00 | 56 | 1010.7 |
| 20260504223014 | 22 | 90 | 3.2 | 6.4 | 0.00 | 0.00 | 0.00 | 53 | 1010.7 |
| 20260504221520 | 22 | 115 | 1.6 | 3.2 | 0.00 | 0.00 | 0.00 | 56 | 1010.8 |
| 20260504220024 | 22 | 84 | 1.6 | 6.4 | 0.00 | 0.00 | 0.00 | 57 | 1010.9 |
| 20260504214508 | 22 | 212 | 1.6 | 4.8 | 0.00 | 0.00 | 0.00 | 56 | 1011.0 |
| 20260504213031 | 21 | 96 | 1.6 | 6.4 | 0.00 | 0.00 | 0.00 | 56 | 1011.2 |
| 20260504211519 | 21 | 88 | 3.2 | 8.0 | 0.00 | 0.00 | 0.00 | 56 | 1011.3 |
| 20260504210027 | 21 | 74 | 3.2 | 6.4 | 0.00 | 0.00 | 0.00 | 57 | 1011.3 |
| 20260504204527 | 22 | 107 | 0.0 | 3.2 | 0.00 | 0.00 | 0.00 | 56 | 1011.4 |
| 20260504203024 | 22 | 291 | 3.2 | 4.8 | 0.00 | 0.00 | 0.00 | 55 | 1011.6 |
| 20260504201522 | 21 | 352 | 3.2 | 4.8 | 0.00 | 0.00 | 0.00 | 58 | 1011.6 |
| 20260504200022 | 20 | 244 | 1.6 | 3.2 | 0.00 | 0.00 | 0.00 | 62 | 1011.7 |
| 20260504194524 | 20 | 115 | 1.6 | 4.8 | 0.00 | 0.00 | 0.00 | 61 | 1011.7 |
| 20260504193028 | 20 | 100 | 3.2 | 3.2 | 0.00 | 0.00 | 0.00 | 61 | 1011.7 |
| 20260504191525 | 20 | 205 | 1.6 | 4.8 | 0.00 | 0.00 | 0.00 | 55 | 1011.7 |
| 20260504190016 | 20 | 350 | 3.2 | 6.4 | 0.00 | 0.00 | 0.00 | 56 | 1011.8 |
| 20260504184524 | 20 | 95 | 0.0 | 4.8 | 0.00 | 0.00 | 0.00 | 64 | 1011.9 |
| 20260504183028 | 19 | 259 | 3.2 | 4.8 | 0.00 | 0.00 | 0.00 | 60 | 1011.8 |
| 20260504181513 | 18 | 281 | 3.2 | 4.8 | 0.00 | 0.00 | 0.00 | 63 | 1011.9 |
| 20260504180018 | 17 | 281 | 3.2 | 11.3 | 0.00 | 0.00 | 0.00 | 64 | 1011.8 |
| 20260504174522 | 17 | 275 | 4.8 | 9.7 | 0.00 | 0.00 | 0.00 | 67 | 1011.8 |
| 20260504173013 | 16 | 280 | 1.6 | 11.3 | 0.00 | 0.00 | 0.00 | 71 | 1011.8 |
| 20260504171517 | 16 | 270 | 4.8 | 11.3 | 0.00 | 0.00 | 0.00 | 72 | 1011.9 |